This demonstration page uses our WeatherBlox Daily Observations layout. Learn more.

Left ArrowRight Arrow

Hourly Observations for April 26, 2019

Temp ( °F °C ) Dew Point ( °F °C ) Humidity (%) Winds ( mph kmh ) Pressure ( in mb ) Visibility ( mi km ) Precip ( " mm )
12:52 am 00:52 Clear 52 11.1 40 4.4 64 64 NW 8 13 30.06 1018 10 16 0.00 0.00
1:52 am 01:52 Clear 56 13.3 40 4.4 55 55 NNW 12 19 30.07 1018 10 16 0.00 0.00
2:52 am 02:52 Clear 54 12.2 37 2.8 53 53 N 12 19 30.08 1019 10 16 0.00 0.00
3:52 am 03:52 Clear 50 10 38 3.3 63 63 N 8 13 30.10 1019 10 16 0.00 0.00
4:52 am 04:52 Clear 45 7.2 33 0.6 63 63 NNW 6 9 30.11 1020 10 16 0.00 0.00
5:52 am 05:52 Clear 46 7.8 37 2.8 71 71 NNW 7 11 30.13 1020 10 16 0.00 0.00
6:52 am 06:52 Sunny 45 7.2 32 0 61 61 NW 9 15 30.15 1021 10 16 0.00 0.00
7:52 am 07:52 Sunny 50 10 32 0 50 50 NNW 10 17 30.16 1022 10 16 0.00 0.00
8:52 am 08:52 Sunny 52 11.1 31 -0.6 45 45 N 14 22 30.15 1021 10 16 0.00 0.00
9:52 am 09:52 Mostly Sunny 54 12.2 32 0 43 43 NNW 13 20 30.16 1021 10 16 0.00 0.00
10:52 am 10:52 Mostly Sunny 58 14.4 29 -1.7 33 33 NNW 12 19 30.15 1021 10 16 0.00 0.00
11:52 am 11:52 Partly Cloudy 60 15.6 26 -3.3 27 27 NW 9 15 30.14 1021 10 16 0.00 0.00
12:52 pm 12:52 Partly Cloudy 63 17.2 24 -4.4 23 23 N 7 11 30.12 1020 10 16 0.00 0.00
1:52 pm 13:52 Mostly Cloudy 63 17.2 24 -4.4 23 23 NW 7 11 30.09 1019 10 16 0.00 0.00
2:52 pm 14:52 Mostly Cloudy 63 17.2 25 -3.9 24 24 WSW 3 6 30.07 1018 10 16 0.00 0.00
3:52 pm 15:52 Mostly Cloudy 65 18.3 25 -3.9 22 22 WNW 5 7 30.03 1017 10 16 0.00 0.00
5:52 pm 17:52 Cloudy 63 17.2 26 -3.3 25 25 SSE 6 9 30.00 1016 10 16 0.00 0.00
6:52 pm 18:52 Cloudy 63 17.2 30 -1.1 29 29 SE 7 11 29.97 1015 10 16 0.00 0.00
7:52 pm 19:52 Mostly Cloudy 60 15.6 31 -0.6 33 33 E 8 13 29.94 1014 10 16 0.00 0.00
8:52 pm 20:52 Mostly Cloudy 58 14.4 30 -1.1 35 35 E 9 15 29.91 1013 10 16 0.00 0.00
9:52 pm 21:52 Mostly Cloudy 59 15 25 -3.9 27 27 E 13 20 29.89 1012 10 16 0.00 0.00
10:52 pm 22:52 Cloudy 60 15.6 23 -5 24 24 ESE 15 24 29.87 1011 10 16 0.00 0.00
11:52 pm 23:52 Mostly Cloudy 59 15 25 -3.9 27 27 ESE 15 24 29.83 1010 10 16 0.00 0.00

Powered by AerisWeather